Regional Weather Roundup
Issued by NWS Kansas City/Pleasant Hill, MO

Home | Current Version | Previous Version | Graphics & Text | Print | Product List | Glossary Off
Versions: 1 2 3 4 5 6 7 8 9 10 11 12 13 14 15 16 17 18 19 20 21 22 23 24 25 26 27 28 29 30 31 32 33 34 35 36 37 38 39 40 41 42 43 44 45 46 47 48 49 50

000
ASUS43 KEAX 281904
RWREAX

WEATHER ROUNDUP FOR EASTERN KANSAS AND NORTHWEST MISSOURI
NATIONAL WEATHER SERVICE KANSAS CITY/PLEASANT HILL MO
200 PM CDT THU MAY 28 2015

KSZ040-057-103>105-MOZ028-029-037-043-282000-
...KANSAS CITY METROPOLITAN AREA...

CITY           SKY/WX    TMP DP  RH WIND       PRES   REMARKS
K.C. INTL      CLOUDY    69  65  86 S12       30.09S
K.C. DOWNTOWN  RAIN      70  64  81 VRB5      30.08S
LEES SUMMIT    RAIN      68  65  90 S8        30.10R FOG
OLATHE - IXD   LGT RAIN  68  66  93 S8        30.09F
OLATHE - OJC   LGT RAIN  68  66  93 SW7       30.08F
LAWRENCE       CLOUDY    71  64  78 S15       30.06F

$$

MOZ001>008-011>017-020>025-030>033-038>040-044>046-053-054-282000-
...NORTHERN AND CENTRAL MISSOURI...

CITY           SKY/WX    TMP DP  RH WIND       PRES   REMARKS
ST. JOSEPH     CLOUDY    70  65  84 S8        30.07F
MOSBY          CLOUDY    70  64  83 S7        30.09S
WARRENSBURG    CLOUDY    77  64  65 N3        30.06F
WHITEMAN AFB   CLOUDY    78  65  64 W6        30.06F
CLINTON        CLOUDY    81  68  65 SE8       30.07S
SEDALIA        CLOUDY    81  67  62 S8        30.07F
WARSAW         NOT AVBL
CHILLICOTHE      N/A     75  67  76 SE9       30.09S
KIRKSVILLE     CLOUDY    78  65  63 SE10      30.09F

$$

MOZ041-047>049-056>058-063>065-088>090-097-282000-
...EASTERN AND SOUTHERN MISSOURI...

CITY           SKY/WX    TMP DP  RH WIND       PRES   REMARKS
ST. LOUIS INTL PTSUNNY   84  66  54 SE9       30.11F
SPIRIT OF STL  PTSUNNY   84  68  58 VRB7      30.08F
COLUMBIA       LGT RAIN  72  67  84 CALM      30.09F
JEFFERSON CITY CLOUDY    76  61  59 CALM      30.08F
ROLLA          PTSUNNY   78  68  71 S14       30.09F
OSAGE BEACH    CLOUDY    81  68  65 S5        30.09F
SPRINGFIELD    CLOUDY    79  68  69 S12       30.08F
BRANSON        PTSUNNY   75  68  78 S10       30.11F
JOPLIN         LGT RAIN  68  66  93 W8        30.07F
WEST PLAINS    PTSUNNY   77  65  66 SE8       30.14F

$$

IAZ060-094-KSZ022-034>040-054-083-096-NEZ052-066-093-282000-
...KANSAS...SOUTHEAST NEBRASKA AND IOWA...

CITY           SKY/WX    TMP DP  RH WIND       PRES   REMARKS
TOPEKA         CLOUDY    71  67  87 SE9       30.07S
MANHATTAN      CLOUDY    72  65  78 S9        30.03S
EMPORIA        CLOUDY    70  64  81 S15G26    30.05F
CHANUTE        LGT RAIN  68  65  90 SE9G24    30.09F
WICHITA        CLOUDY    74  64  71 S21       30.04F
OMAHA          LGT RAIN  70  64  81 S9        30.03S
LINCOLN        LGT RAIN  70  64  81 SE13      30.02F
FALLS CITY     RAIN      68  64  87 S15       30.05F
LAMONI         CLOUDY    72  62  71 SE8       30.08S
DES MOINES     CLOUDY    77  60  55 S18G25    30.07S

$$



USA.gov is the U.S. government's official web portal to all federal, state and local government web resources and services.